This is the latest recevied weather packets stored in our database for station/object N4HAC. If no packets are shown the sender has not sent any weather packets the latest 10 day(s).
| Time | Temp. | Humidity | Pressure | Rain* | Wind** | Luminosity | Snow |
|---|---|---|---|---|---|---|---|
| 1777852828 | 14.44° C | 35% | 1009 hPa | 0 mm | - | 5 W/m² | - |
| 1777852527 | 14.44° C | 33% | 1009 hPa | 0 mm | - | 8 W/m² | - |
| 1777852223 | 15.56° C | 33% | 1009 hPa | 0 mm | - | 12 W/m² | - |
| 1777851921 | 16.11° C | 32% | 1009 hPa | 0 mm | - | 16 W/m² | - |
| 1777851619 | 16.11° C | 31% | 1008.9 hPa | 0 mm | - | 19 W/m² | - |
| 1777851315 | 16.11° C | 30% | 1008.9 hPa | 0 mm | - | 22 W/m² | - |
| 1777851011 | 16.67° C | 30% | 1008.8 hPa | 0 mm | - | 33 W/m² | - |
| 1777850708 | 16.67° C | 31% | 1008.7 hPa | 0 mm | - | 31 W/m² | - |
| 1777850406 | 16.67° C | 28% | 1008.9 hPa | 0 mm | - | 34 W/m² | - |
| 1777850103 | 16.67° C | 30% | 1008.8 hPa | 0 mm | - | 46 W/m² | - |
| 1777849800 | 16.67° C | 32% | 1008.7 hPa | 0 mm | - | 44 W/m² | - |
| 1777849496 | 16.67° C | 28% | 1008.7 hPa | 0 mm | - | 52 W/m² | - |
| 1777849194 | 16.67° C | 30% | 1008.7 hPa | 0 mm | - | 60 W/m² | - |
| 1777848890 | 16.67° C | 29% | 1008.5 hPa | 0 mm | - | 67 W/m² | - |
| 1777848586 | 16.67° C | 28% | 1008.7 hPa | 0 mm | - | 74 W/m² | - |
| 1777848283 | 16.67° C | 28% | 1008.5 hPa | 0 mm | - | 77 W/m² | - |
| 1777847981 | 16.67° C | 30% | 1008.6 hPa | 0 mm | - | 69 W/m² | - |
| 1777847679 | 16.67° C | 29% | 1008.6 hPa | 0 mm | - | 71 W/m² | - |
| 1777847374 | 16.67° C | 28% | 1008.6 hPa | 0 mm | - | 74 W/m² | - |
| 1777847073 | 17.22° C | 32% | 1008.5 hPa | 0 mm | - | 77 W/m² | - |
| 1777846771 | 16.67° C | 29% | 1008.7 hPa | 0 mm | - | 93 W/m² | - |
| 1777846469 | 17.22° C | 29% | 1008.6 hPa | 0 mm | - | 86 W/m² | - |
| 1777846165 | 17.22° C | 29% | 1008.6 hPa | 0 mm | - | 90 W/m² | - |
| 1777845861 | 16.67° C | 28% | 1008.7 hPa | 0 mm | - | 94 W/m² | - |
| 1777845559 | 16.67° C | 30% | 1008.6 hPa | 0 mm | - | 99 W/m² | - |
* Rain latest hour (hover to see other rain measurements)
** Current wind speed in m/s (hover to see current wind gust speed)